Montauk, NY

8:04 PM EDT on March 26, 2017 (GMT -0400)
Montauk

Weather History for KMTP - May, 2014

Change the Weather History Date:

Friday, May 16, 2014

  Actual Average (KHTO) Record (KHTO)
Temperature  
Mean Temperature 60 °F -  
Max Temperature 64 °F 64 °F 80 °F (1998)
Min Temperature 57 °F 47 °F 33 °F (1947)
Degree Days  
Heating Degree Days 4    
Growing Degree Days 10 (Base 50)    
Moisture  
Dew Point 57 °F    
Average Humidity 89    
Maximum Humidity 96    
Minimum Humidity 80    
Precipitation  
Precipitation 0.00 in - - ()
Sea Level Pressure  
Sea Level Pressure 30.06 in    
Wind  
Wind Speed 9 mph (SE)    
Max Wind Speed 13 mph    
Max Gust Speed 25 mph    
Averages and records for this station are not official NWS values.
T = Trace of Precipitation, MM = Missing Value Source: NWS Daily Summary

Daily Weather History Graph

Daily Weather History Graph

Search for Another Location

Airport or City:

Trip Planner

Search our weather history database for the weather conditions in past years. The results will help you decide how hot, cold, wet, or windy it might be!

Date:

Astronomy

May. 16, 2014 Rise Set
Actual Time 5:28 AM EDT 7:59 PM EDT
Civil Twilight 4:57 AM EDT 8:31 PM EDT
Nautical Twilight 4:18 AM EDT 9:10 PM EDT
Astronomical Twilight 3:34 AM EDT 9:54 PM EDT
Moon 10:03 PM EDT (5/16) 7:07 AM EDT (5/16)
Length of Visible Light 15h 34m
Length of Day
14h 31m
Waning Gibbous, 95% of the Moon is Illuminated
May 16
Waning Gibbous
May 21
Last Quarter
May 28
New
Jun 5
First Quarter
Jun 13
Full

Hourly Weather History & Observations

Time (EDT) Temp. Dew Point Humidity Pressure Visibility Wind Dir Wind Speed Gust Speed Precip Events Conditions
12:54 AM 57.9 °F 55.9 °F 93% 30.18 in - SE 6.9 mph - N/A   Unknown
1:54 AM 57.9 °F 55.9 °F 93% 30.16 in - SE 9.2 mph - N/A   Unknown
2:54 AM 57.9 °F 55.9 °F 93% 30.15 in - SSE 8.1 mph - N/A   Unknown
3:54 AM 59.0 °F 55.9 °F 90% 30.14 in - SE 9.2 mph - N/A   Unknown
4:54 AM 59.0 °F 57.0 °F 93% 30.12 in - SE 8.1 mph - N/A   Unknown
5:54 AM 59.0 °F 57.0 °F 93% 30.11 in - SE 9.2 mph - N/A   Unknown
6:54 AM 60.1 °F 57.0 °F 90% 30.11 in - SE 9.2 mph 17.3 mph N/A   Unknown
7:54 AM 61.0 °F 57.0 °F 87% 30.09 in - SE 9.2 mph 20.7 mph N/A   Unknown
8:54 AM 61.0 °F 57.0 °F 87% 30.08 in - SE 10.4 mph 18.4 mph N/A   Unknown
9:54 AM 62.1 °F 57.0 °F 84% 30.08 in - SE 11.5 mph 25.3 mph N/A   Unknown
10:54 AM 62.1 °F 57.0 °F 84% 30.08 in - SE 10.4 mph 20.7 mph N/A   Unknown
11:54 AM 64.0 °F 57.9 °F 80% 30.07 in - SE 12.7 mph 23.0 mph N/A   Unknown
12:54 PM 64.0 °F 57.9 °F 80% 30.06 in - SE 10.4 mph 24.2 mph N/A   Unknown
1:54 PM 64.0 °F 57.9 °F 80% 30.05 in - SE 12.7 mph 23.0 mph N/A   Unknown
2:54 PM 63.0 °F 57.9 °F 84% 30.04 in - SSE 10.4 mph 23.0 mph N/A   Unknown
3:54 PM 62.1 °F 57.9 °F 86% 30.02 in - SE 10.4 mph 20.7 mph N/A   Unknown
4:54 PM 61.0 °F 57.9 °F 90% 30.01 in - SE 10.4 mph 19.6 mph N/A   Unknown
5:54 PM 61.0 °F 57.9 °F 90% 30.00 in - SE 11.5 mph 23.0 mph N/A   Unknown
6:54 PM 61.0 °F 57.9 °F 90% 29.99 in - SE 11.5 mph 25.3 mph N/A   Unknown
7:54 PM 60.1 °F 57.9 °F 93% 30.00 in - SE 10.4 mph 21.9 mph N/A   Unknown
8:54 PM 60.1 °F 59.0 °F 96% 30.00 in - SE 10.4 mph 23.0 mph N/A   Unknown
9:54 PM 60.1 °F 59.0 °F 96% 29.98 in - SE 9.2 mph 24.2 mph N/A   Unknown
10:54 PM 60.1 °F 59.0 °F 96% 29.97 in - SE 11.5 mph 21.9 mph N/A   Unknown
11:54 PM 60.1 °F 59.0 °F 96% 29.95 in - SE 11.5 mph 23.0 mph N/A   Unknown